www.pogodaiklimat.ru

Погода и климат >> Архив погоды >> Пакистан >> Джанг


ПОГОДА в Джанге

  • Прогноз погоды в Джанге
  • Монитор погоды в Джанге

АРХИВ ПОГОДЫ в Джанге

Время (UTC), дата Ветер
(напр.,м/с)
 
Видим.   Явления Облачность Т
(С)
Тd
(С)
f
(%)
Тe
(С)
Тes
(С)
Комфортность P
(гПа)
Po
(гПа)
Тmin
(С)
Tmax
(С)
R
(мм)
R24
(мм)
S
(см)
09 19.06 С 1 10 км ясно +38.0 +18.5 32 +42 +63 опасность
перегрева
1000.3 983.5
12 19.06 З 1 10 км ясно +38.5 +19.2 33 +43 +48 опасность
перегрева
998.6 981.8 +39.0
15 19.06 штиль 0 4000 м мгла ясно +34.0 +18.9 41 +39 +39 очень
душно
997.1 979.9
18 19.06 штиль 0 4000 м дым 3/0
[Ci fib]
+31.5 +21.2 54 +39 +39 очень
душно
1000.2 982.7
21 19.06 штиль 0 4000 м дым 3/0
[Ci fib]
+29.5 +20.5 58 +36 +36 очень
душно
999.6 982.1
00 20.06 штиль 0 4000 м дым ясно +27.5 +21.6 70 +35 +35 очень
душно
1000.0 982.4
03 20.06 штиль 0 4000 м дым ясно +32.5 +22.4 55 +42 +51 опасность
перегрева
1001.4 984.0 +27.2
06 20.06 ЮВ 2 4000 м мгла 6/3 1200 м
[Sc Ac trans]
+37.0 +21.9 42 +45 +56 опасность
перегрева
1002.3 985.3
09 20.06 СЗ 3 4000 м мгла 8/4 1200 м
[Sc Ac As]
+39.5 +18.6 30 +43 +48 опасность
перегрева
1000.2 983.3
12 20.06 Ю 8 2000 м пыльный позёмок 9/4 1200 м
[Sc Ac As]
+36.0 +17.7 34 +39 +40 очень
душно
998.6 981.4 +40.2
18 20.06 ЮВ 2 4000 м дым {гроза, дождь} 6/3 1200 м
[Sc Ac As]
+25.0 +20.5 76 +31 +31 очень
душно
1003.1 985.1 2
21 20.06 штиль 0 4000 м дым 3/0
[Ac trans]
+25.0 +20.5 76 +31 +31 очень
душно
1002.3 984.3
00 21.06 штиль 0 4000 м дым 6/3 1200 м
[Sc Ac As]
+23.0 +19.9 83 +30 +30 очень
душно
1003.3 985.2
03 21.06 штиль 0 10 км ясно +28.5 +19.4 58 +34 +44 очень
душно
1005.5 987.7 +22.2
06 21.06 штиль 0 10 км ясно +34.0 +20.8 46 +41 +68 опасность
перегрева
1005.3 987.9
09 21.06 ЮЗ 2 10 км ясно +35.5 +19.9 40 +41 +59 опасность
перегрева
1002.9 985.7
12 21.06 штиль 0 4000 м ясно +36.5 +22.1 43 +45 +51 опасность
перегрева
1001.2 984.2 +37.2
15 21.06 штиль 0 4000 м дым 4/0
[Ac trans]
+32.0 +21.8 55 +41 +41 опасность
перегрева
1001.3 983.6
18 21.06 штиль 0 4000 м дым 4/0
[Ac trans]
+30.0 +23.5 68 +41 +41 опасность
перегрева
1001.9 984.2
21 21.06 штиль 0 4000 м дым 4/0
[Ac trans]
+28.0 +22.9 74 +37 +37 очень
душно
1000.9 983.1
00 22.06 штиль 0 4000 м дым ясно +27.0 +23.4 81 +37 +37 очень
душно
1001.6 983.8
03 22.06 штиль 0 10 км ясно +33.0 +23.0 56 +43 +53 опасность
перегрева
1002.9 985.5 +26.4
06 22.06 штиль 0 10 км ясно +36.5 +22.1 43 +45 +72 опасность
перегрева
1003.0 986.0
09 22.06 З 2 10 км ясно +39.0 +18.9 31 +43 +61 опасность
перегрева
1002.1 985.2
12 22.06 штиль 0 10 км ясно +39.5 +21.5 36 +47 +53 опасность
перегрева
1097.9 981.1 +40.2
15 22.06 штиль 0 4000 м ясно +36.0 +24.0 50 +47 +47 опасность
перегрева
998.0 981.0
18 22.06 штиль 0 4000 м дым ясно +32.5 +23.2 58 +43 +43 опасность
перегрева
998.1 980.9
21 22.06 штиль 0 4000 м дым ясно +31.0 +23.1 63 +41 +41 опасность
перегрева
998.7 981.2
00 23.06 штиль 0 4000 м дым 4/0
[Ac trans]
+30.0 +24.3 72 +42 +42 опасность
перегрева
999.2 981.7
03 23.06 ЮЗ 1 4000 м дым ясно +33.0 +25.3 64 +47 +56 опасность
перегрева
1000.9 983.7 +29.5
06 23.06 Ю 1 10 км 3/0
[Ac trans]
+39.0 +22.7 39 +48 +67 опасность
перегрева
1001.6 984.8
09 23.06 ЮЗ 8 4000 м пыльный позёмок 9/4 1200 м
[Sc Ac As]
+35.0 +19.3 40 +40 +41 очень
душно
1000.2 983.0
12 23.06 ЮВ 3 4000 м дым 9/5 1200 м
[Sc Ac As]
+29.0 +20.8 61 +36 +37 очень
душно
999.1 981.5 +40.0
15 23.06 СЗ 4 4000 м дым 10/5 1200 м
[Sc As op]
+28.0 +22.1 70 +36 +36 очень
душно
1001.6 984.0 0.0
18 23.06 СЗ 3 4000 м дым 10/5 1200 м
[Sc As op]
+25.5 +21.8 80 +33 +33 очень
душно
1003.2 985.2 0.3
21 23.06 С 1 4000 м дым 9/5 1200 м
[Sc Ac As]
+25.0 +21.3 80 +32 +32 очень
душно
1002.3 984.5
00 24.06 штиль 0 4000 м дым 9/5 1200 м
[Sc Ac As]
+24.5 +20.7 79 +30 +30 очень
душно
1003.2 985.2
03 24.06 ЮВ 1 4000 м дым 9/5 1200 м
[Sc Ac As]
+27.5 +22.4 74 +36 +38 очень
душно
1005.4 987.6 +24.2
06 24.06 штиль 0 4000 м дым 9/6 1200 м
[Sc Ac As]
+30.5 +22.5 62 +40 +45 очень
душно
1006.4 988.7
09 24.06 ЮВ 1 4000 м мгла 9/3 1200 м
[Sc Ac As]
+34.0 +19.9 44 +40 +46 очень
душно
1004.3 986.9
12 24.06 ЮВ 1 4000 м мгла 8/3 1200 м
[Sc Ac trans]
+35.5 +21.7 45 +44 +46 опасность
перегрева
1002.8 985.6 +36.2
15 24.06 штиль 0 4000 м дым 3/0
[Ac trans]
+32.5 +21.5 52 +40 +40 очень
душно
1003.4 986.0
18 24.06 штиль 0 4000 м дым ясно +29.5 +23.0 68 +39 +39 очень
душно
1004.6 986.9
21 24.06 СЗ 1 4000 м дым 4/0
[Ac trans]
+28.0 +22.9 74 +37 +37 очень
душно
1004.3 986.5
03 25.06 штиль 0 10 км ясно +31.0 +22.3 60 +40 +50 очень
душно
1005.0 987.3 +26.5
06 25.06 СЗ 2 10 км ясно +36.0 +19.7 39 +42 +62 опасность
перегрева
1003.5 986.3
09 25.06 штиль 0 10 км ясно +38.5 +20.2 35 +44 +69 опасность
перегрева
1001.2 984.3
12 25.06 ЮВ 1 10 км ясно +35.5 +21.7 45 +44 +46 опасность
перегрева
1002.8 985.6 +36.2
15 25.06 штиль 0 4000 м мгла ясно +35.5 +21.7 45 +44 +44 опасность
перегрева
1000.5 983.3
18 25.06 ЮЗ 1 4000 м дым ясно +31.0 +22.3 60 +40 +40 очень
душно
1002.1 984.4
21 25.06 штиль 0 4000 м дым ясно +29.0 +22.4 68 +38 +38 очень
душно
1001.1 983.3
00 26.06 штиль 0 4000 м дым ясно +28.0 +22.9 74 +37 +37 очень
душно
1000.7 982.9
06 26.06 ЮЗ 2 10 км ясно +38.0 +24.0 45 +49 +69 опасность
перегрева
1001.0 984.2

 

Местоположение метеостанции Джанг (Пакистан): широта 31.27 долгота 72.32 высота над уровнем моря 153 м.

В архиве по умолчанию представлена погода в Джанге за последнюю неделю. Архивные данные за месяц целиком и за предыдущие месяцы, начиная с января 2011 года, Вы можете получить, выбрав интересующий диапазон дат из раскрывающегося списка и нажав кнопку "Ввод!".


*Определитесь, кто Вы:
робот инопланетянин человек

Внимание! Время в таблицах - всемирное. Для получения местного времени необходимо прибавить поправку, которая равна 5 ч.

Смотрите также архив погоды в соседних городах и на ближайших метеорологических станциях:

Погода в Тоба Тек Сингх (Пакистан) (35 км)
Погода на Авиабазе Raifiqui (Пакистан) (56 км)
Погода в Фейсалабаде (Пакистан) (76 км)
Погода в Нур Пур Тал (Пакистан) (78 км)
Погода в Саргодхе (Пакистан) (93 км)
Погода в Саргодхе (Пакистан) (93 км)
Погода в Сахивале (Пакистан) (95 км)
Погода в Ханевале (Пакистан) (115 км)
Погода в Окаре (Пакистан) (118 км)
Погода в Бхаккаре (Пакистан) (125 км)

Пояснения к столбцам:

Ветер - указаны скорость ветра в м/с - средняя за 10 мин, порывы в срок и между сроками (в фигурных скобках) и направление, откуда дует ветер: С - северный, СВ - северо-восточный, В - восточный, ЮВ - юго-восточный, Ю - южный, ЮЗ - юго-западный, З - западный, СЗ - северо-западный.
Видимость - горизонтальная дальность видимости в метрах или километрах. При видимости от 1 до 10 км при отсутствии осадков обычно наблюдается дымка, при ухудшении видимости до 1 км и менее - туман. В сухую погоду видимость может ухудшаться дымом, пылью или мглою.
Явления - указаны атмосферные явления, наблюдавшиеся в срок или в последний час перед сроком; фигурными скобками обозначены явления, наблюдавшиеся между сроками (за 1-3 часа до срока); квадратными скобками обозначены град или гололедные отложения с указанием их диаметра в мм.
Облачность - указаны через наклонную черту общая и нижняя облачность в баллах и высота нижней границы облаков в метрах; квадратными скобками обозначены формы облаков: Ci - перистые, Cs - перисто-слоистые, Cc - перисто-кучевые, Ac - высококучевые, As - высокослоистые, Sc - слоисто-кучевые, Ns - слоисто-дождевые, Cu - кучевые, Cb - кучево-дождевые. Подробнее классификацию облаков см. в Атласе облаков (PDF).
T - Температура воздуха - температура, измеренная на высоте 2 м над землей.
Td - Температура точки росы - температура, при понижении до которой содержащийся в воздухе водяной пар достигнет насыщения.
f - Относительная влажность воздуха - влажноcть воздуха, измеренная на высоте 2 м над землей.
Te - Эффективная температура - температура, которую ощущает одетый по сезону человек в тени. Характеристика душности погоды. При расчете учитывается влияние влажности воздуха и скорости ветра на теплоощущения человека.
Tes - Эффективная температура на солнце - температура, которую ощущает человек, с поправкой на солнечный нагрев. Характеристика знойности погоды. Зависит от высоты солнца над горизонтом, облачности и скорости ветра. Ночью, в пасмурную погоду, а также при ветре 12 м/с и более поправка равна нулю.
P - Атмосферное давление - приведенное к уровню моря атмосферное давление.
Po - Атмосферное давление - измеренное на уровне метеостанции атмосферное давление.
Tmin - Минимальная температура - минимум температуры воздуха на высоте 2 м над землей.
Tmax - Максимальная температура - максимум температуры воздуха на высоте 2 м над землей.
R - Количество осадков - Количество выпавших осадков за период времени, мм. При наведении курсора мыши на число - период времени, за который выпало указанное количество осадков.
R24 - Количество осадков - Количество выпавших осадков за 24 часа, мм.
S - Снежный покров - Высота снежного покрова, см. При наведении курсора мыши на число - состояние снежного покрова и степень покрытия местности в баллах.